| time (UTC) | temp C | wind direction | speed KPH | gust KPH | rain 1hr cm | rain 24hr cm | rain mn cm | humidity % | barometer mb |
| 20260905103209 | 17 | 209 | 0.0 | 6.4 | 0.00 | 0.00 | 0.00 | 51 | 1022.0 |
| 20260905102007 | 18 | 214 | 6.4 | 6.4 | 0.00 | 0.00 | 0.00 | 47 | 1022.0 |
| 20260905101357 | 18 | 168 | 3.2 | 4.8 | 0.00 | 0.00 | 0.00 | 46 | 1022.0 |
| 20260905095550 | 18 | 234 | 6.4 | 6.4 | 0.00 | 0.00 | 0.00 | 43 | 1022.0 |
| 20260905093743 | 18 | 180 | 9.7 | 9.7 | 0.00 | 0.00 | 0.00 | 43 | 1021.0 |
| 20260905093138 | 18 | 304 | 8.0 | 9.7 | 0.00 | 0.00 | 0.00 | 41 | 1021.0 |
| 20260905090123 | 18 | 231 | 6.4 | 8.0 | 0.00 | 0.00 | 0.00 | 58 | 1021.0 |
| 20260905084921 | 18 | 180 | 4.8 | 8.0 | 0.00 | 0.00 | 0.00 | 57 | 1021.0 |
| 20260905083717 | 18 | 212 | 3.2 | 6.4 | 0.00 | 0.00 | 0.00 | 53 | 1021.0 |
| 20260905081910 | 17 | 283 | 4.8 | 4.8 | 0.00 | 0.00 | 0.00 | 48 | 1021.0 |
| 20260905080706 | 18 | 179 | 4.8 | 4.8 | 0.00 | 0.00 | 0.00 | 46 | 1021.0 |
| 20260905074857 | 18 | 281 | 4.8 | 4.8 | 0.00 | 0.00 | 0.00 | 47 | 1021.0 |
| 20260905072446 | 18 | 248 | 0.0 | 4.8 | 0.00 | 0.00 | 0.00 | 47 | 1020.0 |
| 20260905071237 | 18 | 256 | 0.0 | 0.0 | 0.00 | 0.00 | 0.00 | 45 | 1020.0 |
| 20260905065426 | 18 | 256 | 0.0 | 0.0 | 0.00 | 0.00 | 0.00 | 43 | 1020.0 |
| 20260905064822 | 18 | 256 | 0.0 | 3.2 | 0.00 | 0.00 | 0.00 | 43 | 1020.0 |
| 20260905064218 | 18 | 256 | 3.2 | 3.2 | 0.00 | 0.00 | 0.00 | 44 | 1020.0 |
| 20260905063616 | 18 | 164 | 0.0 | 4.8 | 0.00 | 0.00 | 0.00 | 44 | 1020.0 |
| 20260905060602 | 17 | 208 | 4.8 | 4.8 | 0.00 | 0.00 | 0.00 | 44 | 1020.0 |
| 20260905053553 | 18 | 172 | 0.0 | 0.0 | 0.00 | 0.00 | 0.00 | 33 | 1020.0 |
| 20260905051740 | 18 | 172 | 0.0 | 0.0 | 0.00 | 0.00 | 0.00 | 33 | 1020.0 |
| 20260905045332 | 18 | 203 | 0.0 | 0.0 | 0.00 | 0.00 | 0.00 | 30 | 1019.0 |
| 20260905044729 | 18 | 203 | 0.0 | 0.0 | 0.00 | 0.00 | 0.00 | 29 | 1019.0 |
| 20260905042326 | 18 | 203 | 0.0 | 0.0 | 0.00 | 0.00 | 0.00 | 29 | 1019.0 |
| 20260905041119 | 18 | 160 | 3.2 | 3.2 | 0.00 | 0.00 | 0.00 | 28 | 1019.0 |
| 20260905035315 | 19 | 160 | 0.0 | 0.0 | 0.00 | 0.00 | 0.00 | 25 | 1019.0 |
| 20260905034714 | 19 | 160 | 0.0 | 0.0 | 0.00 | 0.00 | 0.00 | 25 | 1019.0 |
| 20260905033506 | 19 | 160 | 3.2 | 3.2 | 0.00 | 0.00 | 0.00 | 26 | 1018.0 |
| 20260905032903 | 19 | 166 | 4.8 | 4.8 | 0.00 | 0.00 | 0.00 | 27 | 1018.0 |
| 20260905032259 | 19 | 165 | 3.2 | 3.2 | 0.00 | 0.00 | 0.00 | 26 | 1018.0 |
| 20260905030456 | 20 | 165 | 0.0 | 0.0 | 0.00 | 0.00 | 0.00 | 23 | 1018.0 |
| 20260905025849 | 20 | 164 | 0.0 | 0.0 | 0.00 | 0.00 | 0.00 | 22 | 1018.0 |
| 20260905025249 | 20 | 166 | 0.0 | 0.0 | 0.00 | 0.00 | 0.00 | 22 | 1018.0 |
| 20260905023443 | 20 | 165 | 0.0 | 0.0 | 0.00 | 0.00 | 0.00 | 19 | 1018.0 |
| 20260905022841 | 20 | 166 | 0.0 | 0.0 | 0.00 | 0.00 | 0.00 | 19 | 1018.0 |
| 20260905022237 | 21 | 165 | 0.0 | 0.0 | 0.00 | 0.00 | 0.00 | 19 | 1018.0 |
| 20260905021638 | 21 | 165 | 0.0 | 4.8 | 0.00 | 0.00 | 0.00 | 19 | 1018.0 |
| 20260905021033 | 21 | 196 | 0.0 | 4.8 | 0.00 | 0.00 | 0.00 | 19 | 1017.0 |
| 20260905020432 | 21 | 183 | 6.4 | 9.7 | 0.00 | 0.00 | 0.00 | 19 | 1017.0 |
| 20260905015827 | 21 | 180 | 8.0 | 8.0 | 0.00 | 0.00 | 0.00 | 19 | 1017.0 |
| 20260905013413 | 21 | 159 | 4.8 | 8.0 | 0.00 | 0.00 | 0.00 | 19 | 1017.0 |
| 20260905012202 | 21 | 164 | 3.2 | 4.8 | 0.00 | 0.00 | 0.00 | 16 | 1017.0 |
| 20260905011558 | 22 | 201 | 3.2 | 3.2 | 0.00 | 0.00 | 0.00 | 16 | 1017.0 |
| 20260905004557 | 22 | 203 | 8.0 | 8.0 | 0.00 | 0.00 | 0.00 | 16 | 1017.0 |
| 20260905001558 | 21 | 188 | 4.8 | 4.8 | 0.00 | 0.00 | 0.00 | 16 | 1017.0 |
| 20260905000358 | 22 | 188 | 3.2 | 3.2 | 0.00 | 0.00 | 0.00 | 16 | 1017.0 |
| 20260904235756 | 22 | 188 | 3.2 | 3.2 | 0.00 | 0.00 | 0.00 | 16 | 1017.0 |
| 20260904233345 | 22 | 189 | 3.2 | 8.0 | 0.00 | 0.00 | 0.00 | 16 | 1017.0 |
| 20260904232744 | 22 | 188 | 6.4 | 6.4 | 0.00 | 0.00 | 0.00 | 16 | 1017.0 |
| 20260904230338 | 22 | 156 | 4.8 | 4.8 | 0.00 | 0.00 | 0.00 | 16 | 1017.0 |
| 20260904225734 | 22 | 163 | 4.8 | 8.0 | 0.00 | 0.00 | 0.00 | 16 | 1017.0 |
| 20260904224606 | 22 | 178 | 4.8 | 6.4 | 0.00 | 0.00 | 0.00 | 16 | 1017.0 |
| 20260904224533 | 22 | 178 | 4.8 | 6.4 | 0.00 | 0.00 | 0.00 | 16 | 1017.0 |
| 20260904223926 | 22 | 161 | 6.4 | 8.0 | 0.00 | 0.00 | 0.00 | 16 | 1017.0 |
| 20260904223323 | 23 | 184 | 8.0 | 8.0 | 0.00 | 0.00 | 0.00 | 16 | 1017.0 |
| 20260904222122 | 23 | 208 | 9.7 | 9.7 | 0.00 | 0.00 | 0.00 | 16 | 1017.0 |
| 20260904220916 | 23 | 215 | 6.4 | 9.7 | 0.00 | 0.00 | 0.00 | 16 | 1017.0 |
| 20260904215712 | 23 | 160 | 8.0 | 8.0 | 0.00 | 0.00 | 0.00 | 15 | 1017.0 |
| 20260904214506 | 23 | 184 | 8.0 | 9.7 | 0.00 | 0.00 | 0.00 | 13 | 1017.0 |
| 20260904213903 | 23 | 208 | 9.7 | 9.7 | 0.00 | 0.00 | 0.00 | 13 | 1017.0 |
| 20260904213300 | 23 | 187 | 8.0 | 9.7 | 0.00 | 0.00 | 0.00 | 13 | 1017.0 |
| 20260904212657 | 23 | 170 | 9.7 | 9.7 | 0.00 | 0.00 | 0.00 | 13 | 1017.0 |
| 20260904211451 | 23 | 177 | 8.0 | 8.0 | 0.00 | 0.00 | 0.00 | 13 | 1017.0 |
| 20260904205646 | 23 | 154 | 8.0 | 9.7 | 0.00 | 0.00 | 0.00 | 13 | 1017.0 |
| 20260904205046 | 23 | 164 | 9.7 | 9.7 | 0.00 | 0.00 | 0.00 | 13 | 1017.0 |
| 20260904203241 | 23 | 162 | 9.7 | 9.7 | 0.00 | 0.00 | 0.00 | 13 | 1017.0 |
| 20260904202638 | 23 | 178 | 6.4 | 6.4 | 0.00 | 0.00 | 0.00 | 13 | 1017.0 |
| 20260904202037 | 23 | 217 | 4.8 | 6.4 | 0.00 | 0.00 | 0.00 | 13 | 1017.0 |
| 20260904195625 | 22 | 180 | 3.2 | 3.2 | 0.00 | 0.00 | 0.00 | 16 | 1017.0 |
| 20260904194420 | 21 | 180 | 4.8 | 4.8 | 0.00 | 0.00 | 0.00 | 16 | 1017.0 |
| 20260904193216 | 19 | 151 | 0.0 | 4.8 | 0.00 | 0.00 | 0.00 | 20 | 1017.0 |
| 20260904192612 | 19 | 151 | 4.8 | 6.4 | 0.00 | 0.00 | 0.00 | 17 | 1016.0 |
| 20260904190802 | 22 | 171 | 4.8 | 4.8 | 0.00 | 0.00 | 0.00 | 16 | 1016.0 |
| 20260904182548 | 21 | 179 | 3.2 | 4.8 | 0.00 | 0.00 | 0.00 | 14 | 1016.0 |
| 20260904181945 | 21 | 179 | 4.8 | 4.8 | 0.00 | 0.00 | 0.00 | 14 | 1016.0 |
| 20260904180742 | 23 | 179 | 0.0 | 0.0 | 0.00 | 0.00 | 0.00 | 13 | 1016.0 |
| 20260904173731 | 25 | 177 | 6.4 | 6.4 | 0.00 | 0.00 | 0.00 | 13 | 1015.0 |
| 20260904170715 | 26 | 204 | 6.4 | 8.0 | 0.00 | 0.00 | 0.00 | 12 | 1016.0 |
| 20260904164258 | 26 | 177 | 4.8 | 8.0 | 0.00 | 0.00 | 0.00 | 12 | 1016.0 |
| 20260904163657 | 26 | 167 | 9.7 | 9.7 | 0.00 | 0.00 | 0.00 | 12 | 1016.0 |
| 20260904163054 | 27 | 220 | 4.8 | 8.0 | 0.00 | 0.00 | 0.00 | 12 | 1016.0 |
| 20260904161253 | 27 | 210 | 4.8 | 4.8 | 0.00 | 0.00 | 0.00 | 11 | 1016.0 |
| 20260904160044 | 27 | 189 | 3.2 | 4.8 | 0.00 | 0.00 | 0.00 | 11 | 1016.0 |
| 20260904154838 | 28 | 170 | 3.2 | 4.8 | 0.00 | 0.00 | 0.00 | 11 | 1016.0 |
| 20260904154236 | 28 | 226 | 4.8 | 6.4 | 0.00 | 0.00 | 0.00 | 11 | 1016.0 |
| 20260904153632 | 28 | 213 | 4.8 | 4.8 | 0.00 | 0.00 | 0.00 | 11 | 1016.0 |
| 20260904150618 | 28 | 188 | 4.8 | 4.8 | 0.00 | 0.00 | 0.00 | 11 | 1016.0 |
| 20260904144816 | 28 | 184 | 8.0 | 8.0 | 0.00 | 0.00 | 0.00 | 11 | 1016.0 |
| 20260904144213 | 28 | 197 | 4.8 | 6.4 | 0.00 | 0.00 | 0.00 | 11 | 1016.0 |
| 20260904143613 | 28 | 191 | 4.8 | 8.0 | 0.00 | 0.00 | 0.00 | 11 | 1016.0 |
| 20260904141801 | 28 | 221 | 4.8 | 9.7 | 0.00 | 0.00 | 0.00 | 11 | 1017.0 |
| 20260904141204 | 28 | 174 | 6.4 | 6.4 | 0.00 | 0.00 | 0.00 | 11 | 1017.0 |
| 20260904140555 | 28 | 202 | 4.8 | 6.4 | 0.00 | 0.00 | 0.00 | 11 | 1016.0 |
| 20260904135350 | 28 | 165 | 4.8 | 6.4 | 0.00 | 0.00 | 0.00 | 11 | 1017.0 |
| 20260904132941 | 28 | 204 | 8.0 | 8.0 | 0.00 | 0.00 | 0.00 | 11 | 1017.0 |
| 20260904131123 | 28 | 185 | 8.0 | 8.0 | 0.00 | 0.00 | 0.00 | 11 | 1017.0 |
| 20260904125318 | 28 | 197 | 4.8 | 4.8 | 0.00 | 0.00 | 0.00 | 11 | 1017.0 |
| 20260904124711 | 28 | 296 | 6.4 | 6.4 | 0.00 | 0.00 | 0.00 | 11 | 1017.0 |
| 20260904123508 | 28 | 246 | 4.8 | 4.8 | 0.00 | 0.00 | 0.00 | 11 | 1017.0 |
| 20260904122900 | 28 | 189 | 4.8 | 6.4 | 0.00 | 0.00 | 0.00 | 11 | 1017.0 |
| 20260904121056 | 27 | 197 | 4.8 | 4.8 | 0.00 | 0.00 | 0.00 | 11 | 1018.0 |
| 20260904115256 | 27 | 165 | 4.8 | 6.4 | 0.00 | 0.00 | 0.00 | 11 | 1018.0 |
| 20260904114646 | 27 | 185 | 4.8 | 4.8 | 0.00 | 0.00 | 0.00 | 11 | 1018.0 |
| 20260904114042 | 27 | 180 | 4.8 | 4.8 | 0.00 | 0.00 | 0.00 | 11 | 1018.0 |
| 20260904112837 | 27 | 218 | 4.8 | 4.8 | 0.00 | 0.00 | 0.00 | 11 | 1018.0 |
| 20260904112235 | 27 | 203 | 4.8 | 4.8 | 0.00 | 0.00 | 0.00 | 11 | 1018.0 |
| 20260904111631 | 27 | 199 | 4.8 | 4.8 | 0.00 | 0.00 | 0.00 | 11 | 1018.0 |